Weather History for KRSW - March, 2013

Change the Weather History Date:

Friday, March 1, 2013

  Actual Average (KFMY) Record (KFMY)
Temperature  
Mean Temperature 60 °F 68 °F  
Max Temperature 64 °F 79 °F 89 °F (1945)
Min Temperature 57 °F 58 °F 39 °F (1968)
Degree Days  
Heating Degree Days 4 1  
Month to date heating degree days 1  
Since 1 July heating degree days 261  
Cooling Degree Days 0 5  
Month to date cooling degree days 5  
Year to date cooling degree days 190  
Growing Degree Days 10 (Base 50)    
Moisture  
Dew Point 46 °F    
Average Humidity 58    
Maximum Humidity 75    
Minimum Humidity 45    
Precipitation  
Precipitation 0.00 in 0.08 in 3.41 in (1980)
Month to date precipitation 0.08  
Year to date precipitation 4.17  
Sea Level Pressure  
Sea Level Pressure 29.98 in    
Wind  
Wind Speed 6 mph (North)    
Max Wind Speed 10 mph    
Max Gust Speed -    
Visibility 10 miles    
Events      
T = Trace of Precipitation, MM = Missing Value Source: NWS Daily Summary

Daily Weather History Graph

Daily Weather History Graph

Search for Another Location

Airport or City:

Trip Planner

Search our weather history database for the weather conditions in past years. The results will help you decide how hot, cold, wet, or windy it might be!

Date:

Astronomy

Mar. 01, 2013 Rise Set
Actual Time 6:50 AM EST 6:28 PM EST
Civil Twilight 6:27 AM EST 6:51 PM EST
Nautical Twilight 6:00 AM EST 7:18 PM EST
Astronomical Twilight 5:33 AM EST 7:45 PM EST
Moon 10:29 PM EST (3/1) 9:04 AM EST (3/1)
Length of Visible Light 12h 24m
Length of Day
11h 37m
Waning Gibbous, 83% of the Moon is Illuminated
Mar 1
Waning Gibbous
Mar 4
Last Quarter
Mar 11
New
Mar 19
First Quarter
Mar 27
Full

Hourly Weather History & Observations

Time (EST) Temp. Dew Point Humidity Pressure Visibility Wind Dir Wind Speed Gust Speed Precip Events Conditions
12:53 AM 63.0 °F 55.0 °F 75% 29.96 in 10.0 mi North 5.8 mph - N/A   Scattered Clouds
1:53 AM 62.1 °F 51.1 °F 67% 29.95 in 10.0 mi North 6.9 mph - N/A   Overcast
2:53 AM 62.1 °F 51.1 °F 67% 29.94 in 10.0 mi North 5.8 mph - N/A   Overcast
4:53 AM 61.0 °F 50.0 °F 67% 29.94 in 10.0 mi North 4.6 mph - N/A   Overcast
6:53 AM 60.1 °F 48.0 °F 64% 29.96 in 10.0 mi North 5.8 mph - N/A   Overcast
7:53 AM 60.1 °F 46.9 °F 62% 29.97 in 10.0 mi North 5.8 mph - N/A   Overcast
8:53 AM 60.8 °F 46.4 °F 59% 30.00 in 10.0 mi North 10.4 mph - N/A   Mostly Cloudy
9:53 AM 63.0 °F 48.0 °F 58% 30.00 in 10.0 mi NE 5.8 mph - N/A   Mostly Cloudy
10:53 AM 64.9 °F 43.0 °F 45% 30.00 in 10.0 mi NNE 8.1 mph - N/A   Mostly Cloudy
11:53 AM 64.0 °F 44.1 °F 48% 29.99 in 10.0 mi North 4.6 mph - N/A   Mostly Cloudy
12:53 PM 64.9 °F 45.0 °F 48% 29.97 in 10.0 mi North 5.8 mph - N/A   Overcast
1:53 PM 63.0 °F 45.0 °F 52% 29.95 in 10.0 mi Variable 5.8 mph - N/A   Scattered Clouds
2:53 PM 63.0 °F 44.1 °F 50% 29.94 in 10.0 mi NNW 5.8 mph - N/A   Mostly Cloudy
3:53 PM 62.6 °F 44.6 °F 52% 29.94 in 10.0 mi WNW 5.8 mph - N/A   Clear
4:53 PM 62.1 °F 45.0 °F 53% 29.95 in 10.0 mi NNW 6.9 mph - N/A   Partly Cloudy
5:53 PM 60.8 °F 44.6 °F 55% 29.97 in 10.0 mi NNW 4.6 mph - N/A   Overcast
6:53 PM 60.1 °F 44.1 °F 55% 29.98 in 10.0 mi North 5.8 mph - N/A   Mostly Cloudy
7:53 PM 59.0 °F 46.0 °F 62% 30.00 in 10.0 mi NNW 5.8 mph - 0.00 in   Scattered Clouds
8:53 PM 57.9 °F 45.0 °F 62% 30.01 in 10.0 mi NNW 6.9 mph - N/A   Partly Cloudy
9:53 PM 57.9 °F 44.1 °F 60% 30.03 in 10.0 mi NNW 5.8 mph - N/A   Overcast
10:53 PM 57.9 °F 42.1 °F 56% 30.02 in 10.0 mi NNW 9.2 mph - N/A   Mostly Cloudy
11:53 PM 57.0 °F 39.9 °F 53% 30.02 in 10.0 mi NNW 6.9 mph - N/A   Overcast